User: anonymous   Login
Location: Unspecified
(0.0000°N, 0.0000°E)
Time: 19:13:07
(UTC+00:00)
Language:

KUIPER-00251 - Orbit

View from above orbital plane
View from above orbital plane
View from above satellite
View from above satellite

Ground track
Ground track

The orbit is defined by the following mean orbital elements,

1 67156U          26145.54983022 +.00000000 +00000-0 +96305-3 0 00005
2 67156  51.9013  78.2841 0001663 144.5098 215.5976 14.79925152    03
Epoch (UTC): 25 May 2026 13:11:45
Eccentricity: 0.0001663
inclination: 51.9013°
perigee height: 628 km
apogee height: 631 km
right ascension of ascending node: 78.2841°
argument of perigee: 144.5098°
revolutions per day: 14.79925152
mean anomaly at epoch: 215.5976°

The dashed part of the orbit path shows where the satellite is in the earth's shadow,  

DLR